Location: Paddlesworth
(51.1000°N, 1.1333°E)
Time: 20:46:59
(UTC+00:00)

Cosmos 1898 Rocket - Pass Details

Date: 11 May 2021
Orbit: 753 x 784 km, 74.0° (Epoch: 21 June)

Event Time Altitude Azimuth Distance (km) Brightness Sun altitude
Exits shadow 22:47:32 26° 209° (SSW) 1,497 4.6 -19.3°
Maximum altitude 22:50:36 82° 294° (WNW) 796 3.5 -19.5°
Drops below altitude 10° 22:55:58 10° 23° (NNE) 2,351 6.8 -19.7°
Sets 22:58:23 0° 25° (NNE) 3,285 7.6 -19.8°
